AVR4848 SKIB-SKBO

Flight info

Callsign AVR4848
Flight time 0h 28m
Altitude 15000
Route ABL1H ABL ABL3L
Aircraft A320/M-SDE3FGHIRWY/LB1

Departure

Time 2026-05-06 22:08
Airport Perales Airport (SKIB)

Arrival

Time 2026-05-06 22:37
Airport El Dorado International Airport (SKBO)
Time Latitude Longitude Altitude Speed Heading
2026-05-06 21:49 4.42595 -75.14057 3049 ft 0 kts 221°
2026-05-06 22:02 4.42608 -75.14045 3049 ft 4 kts 237°
2026-05-06 22:03 4.42616 -75.14021 3047 ft 4 kts 279°
2026-05-06 22:03 4.42609 -75.14004 3048 ft 0 kts 311°
2026-05-06 22:06 4.42613 -75.14008 3047 ft 2 kts 312°
2026-05-06 22:06 4.42627 -75.14020 3048 ft 3 kts 330°
2026-05-06 22:07 4.42647 -75.14011 3049 ft 4 kts 37°
2026-05-06 22:07 4.42668 -75.13993 3049 ft 4 kts 40°
2026-05-06 22:07 4.42683 -75.13974 3049 ft 3 kts 84°
2026-05-06 22:07 4.42678 -75.13958 3048 ft 2 kts 120°
2026-05-06 22:08 4.42639 -75.13907 3047 ft 21 kts 124°
2026-05-06 22:08 4.42437 -75.13677 3046 ft 81 kts 131°
2026-05-06 22:08 4.41910 -75.13074 3040 ft 147 kts 132°
2026-05-06 22:08 4.41206 -75.12253 3600 ft 159 kts 133°
2026-05-06 22:09 4.40518 -75.11392 4400 ft 160 kts 120°
2026-05-06 22:09 4.40400 -75.10288 5096 ft 167 kts 74°
2026-05-06 22:09 4.41095 -75.09355 5602 ft 171 kts 43°
2026-05-06 22:09 4.41987 -75.08564 6119 ft 171 kts 41°
2026-05-06 22:10 4.42880 -75.07778 6632 ft 171 kts 41°
2026-05-06 22:10 4.43770 -75.06992 7123 ft 171 kts 41°
2026-05-06 22:10 4.44697 -75.06171 7397 ft 188 kts 42°
2026-05-06 22:10 4.45717 -75.05260 7574 ft 210 kts 42°
2026-05-06 22:11 4.46864 -75.04234 7719 ft 233 kts 42°
2026-05-06 22:11 4.48139 -75.03091 7931 ft 259 kts 42°
2026-05-06 22:11 4.49544 -75.01831 8288 ft 283 kts 42°
2026-05-06 22:11 4.51044 -75.00483 8908 ft 294 kts 43°
2026-05-06 22:12 4.52582 -74.99108 9696 ft 297 kts 42°
2026-05-06 22:12 4.54135 -74.97716 10367 ft 307 kts 47°
2026-05-06 22:12 4.55455 -74.95945 10651 ft 328 kts 57°
2026-05-06 22:12 4.56741 -74.94013 11251 ft 337 kts 58°
2026-05-06 22:13 4.58034 -74.92045 12029 ft 339 kts 58°
2026-05-06 22:13 4.59334 -74.90058 12827 ft 341 kts 58°
2026-05-06 22:13 4.60637 -74.88066 13640 ft 343 kts 59°
2026-05-06 22:13 4.61953 -74.86062 14242 ft 345 kts 58°
2026-05-06 22:14 4.63277 -74.84051 14466 ft 346 kts 58°
2026-05-06 22:14 4.64602 -74.82039 14541 ft 345 kts 58°
2026-05-06 22:14 4.65923 -74.80038 14555 ft 343 kts 58°
2026-05-06 22:14 4.67242 -74.78042 14530 ft 343 kts 58°
2026-05-06 22:15 4.68556 -74.76052 14532 ft 342 kts 58°
2026-05-06 22:15 4.69874 -74.74055 14532 ft 343 kts 58°
2026-05-06 22:15 4.71186 -74.72062 14533 ft 343 kts 58°
2026-05-06 22:15 4.72500 -74.70066 14535 ft 343 kts 58°
2026-05-06 22:16 4.73811 -74.68077 14531 ft 341 kts 58°
2026-05-06 22:16 4.75117 -74.66101 14531 ft 340 kts 58°
2026-05-06 22:16 4.76419 -74.64129 14554 ft 339 kts 58°
2026-05-06 22:16 4.77720 -74.62155 14548 ft 339 kts 58°
2026-05-06 22:17 4.79018 -74.60184 14545 ft 338 kts 58°
2026-05-06 22:17 4.80318 -74.58211 14541 ft 339 kts 58°
2026-05-06 22:17 4.81601 -74.56264 14544 ft 340 kts 58°
2026-05-06 22:17 4.82902 -74.54291 14411 ft 338 kts 58°
2026-05-06 22:18 4.84193 -74.52337 14002 ft 335 kts 58°
2026-05-06 22:18 4.85475 -74.50394 13509 ft 332 kts 58°
2026-05-06 22:18 4.86746 -74.48465 13033 ft 331 kts 58°
2026-05-06 22:18 4.88004 -74.46554 12661 ft 325 kts 58°
2026-05-06 22:19 4.89224 -74.44702 12583 ft 310 kts 59°
2026-05-06 22:19 4.90070 -74.42799 12610 ft 292 kts 79°
2026-05-06 22:19 4.90093 -74.40835 12635 ft 276 kts 102°
2026-05-06 22:19 4.89387 -74.39109 12664 ft 263 kts 122°
2026-05-06 22:20 4.88311 -74.37675 12696 ft 251 kts 125°
2026-05-06 22:20 4.87274 -74.36312 12720 ft 240 kts 124°
2026-05-06 22:20 4.86289 -74.35005 12793 ft 231 kts 124°
2026-05-06 22:20 4.85333 -74.33727 12712 ft 230 kts 124°
2026-05-06 22:21 4.84365 -74.32436 12368 ft 233 kts 124°
2026-05-06 22:21 4.83388 -74.31137 12076 ft 234 kts 125°
2026-05-06 22:21 4.82403 -74.29830 11784 ft 235 kts 125°
2026-05-06 22:21 4.81414 -74.28521 11497 ft 236 kts 126°
2026-05-06 22:22 4.80420 -74.27206 11207 ft 236 kts 126°
2026-05-06 22:22 4.79429 -74.25897 10917 ft 236 kts 126°
2026-05-06 22:22 4.78457 -74.24618 10627 ft 229 kts 126°
2026-05-06 22:22 4.77504 -74.23365 10383 ft 216 kts 125°
2026-05-06 22:23 4.76624 -74.22208 10091 ft 202 kts 125°
2026-05-06 22:23 4.75816 -74.21142 9822 ft 185 kts 126°
2026-05-06 22:23 4.75072 -74.20155 9630 ft 172 kts 126°
2026-05-06 22:23 4.74362 -74.19214 9406 ft 162 kts 126°
2026-05-06 22:24 4.73683 -74.18324 9124 ft 160 kts 127°
2026-05-06 22:24 4.73002 -74.17441 8889 ft 160 kts 125°
2026-05-06 22:24 4.72343 -74.16542 8681 ft 160 kts 127°
2026-05-06 22:24 4.71682 -74.15669 8492 ft 158 kts 126°
2026-05-06 22:25 4.71031 -74.14795 8373 ft 150 kts 130°
2026-05-06 22:25 4.70357 -74.13926 8851 ft 163 kts 127°
2026-05-06 22:25 4.69634 -74.12979 9619 ft 183 kts 126°
2026-05-06 22:25 4.68843 -74.11909 10295 ft 195 kts 124°
2026-05-06 22:26 4.68016 -74.10766 10556 ft 210 kts 121°
2026-05-06 22:26 4.67679 -74.09353 10939 ft 215 kts 81°
2026-05-06 22:26 4.68395 -74.08044 11430 ft 221 kts 47°
2026-05-06 22:26 4.69608 -74.07092 12075 ft 221 kts 37°
2026-05-06 22:27 4.70963 -74.06342 12586 ft 232 kts 25°
2026-05-06 22:27 4.72595 -74.05886 12600 ft 255 kts 14°
2026-05-06 22:27 4.74407 -74.05678 12724 ft 267 kts
2026-05-06 22:27 4.76276 -74.05794 12747 ft 272 kts 355°
2026-05-06 22:28 4.78148 -74.06061 12755 ft 271 kts 356°
2026-05-06 22:28 4.80004 -74.06398 13043 ft 272 kts 347°
2026-05-06 22:28 4.81765 -74.07139 13041 ft 277 kts 333°
2026-05-06 22:28 4.83313 -74.08309 13034 ft 281 kts 317°
2026-05-06 22:29 4.84553 -74.09836 13042 ft 284 kts 307°
2026-05-06 22:29 4.85686 -74.11459 13041 ft 284 kts 307°
2026-05-06 22:29 4.86824 -74.13079 13038 ft 284 kts 307°
2026-05-06 22:29 4.87961 -74.14701 13025 ft 285 kts 307°
2026-05-06 22:30 4.89097 -74.16325 12998 ft 284 kts 307°
2026-05-06 22:30 4.89968 -74.18102 12979 ft 287 kts 286°
2026-05-06 22:30 4.90413 -74.20052 12954 ft 287 kts 282°
2026-05-06 22:30 4.90792 -74.22015 12907 ft 287 kts 281°
2026-05-06 22:31 4.91056 -74.23990 12699 ft 285 kts 273°
2026-05-06 22:31 4.90880 -74.25949 12420 ft 282 kts 255°
2026-05-06 22:31 4.90243 -74.27794 12118 ft 279 kts 243°
2026-05-06 22:31 4.89377 -74.29531 11857 ft 276 kts 241°
2026-05-06 22:32 4.88303 -74.31070 11790 ft 262 kts 219°
2026-05-06 22:32 4.86818 -74.32038 11813 ft 252 kts 198°
2026-05-06 22:32 4.85160 -74.32384 11815 ft 245 kts 175°
2026-05-06 22:32 4.83496 -74.32118 11822 ft 240 kts 156°
2026-05-06 22:33 4.82078 -74.31314 11650 ft 231 kts 135°
2026-05-06 22:33 4.81038 -74.30120 11421 ft 227 kts 124°
2026-05-06 22:33 4.80101 -74.28877 11179 ft 220 kts 124°
2026-05-06 22:33 4.79193 -74.27675 10909 ft 213 kts 124°
2026-05-06 22:34 4.78314 -74.26514 10677 ft 205 kts 125°
2026-05-06 22:34 4.77465 -74.25392 10450 ft 199 kts 125°
2026-05-06 22:34 4.76644 -74.24308 10227 ft 191 kts 125°
2026-05-06 22:34 4.75865 -74.23280 9989 ft 179 kts 126°
2026-05-06 22:35 4.75137 -74.22317 9790 ft 169 kts 125°
2026-05-06 22:35 4.74444 -74.21403 9622 ft 163 kts 126°
2026-05-06 22:35 4.73769 -74.20511 9430 ft 160 kts 126°
2026-05-06 22:35 4.73102 -74.19630 9200 ft 159 kts 125°
2026-05-06 22:36 4.72429 -74.18742 8948 ft 161 kts 126°
2026-05-06 22:36 4.71750 -74.17854 8684 ft 161 kts 125°
2026-05-06 22:36 4.71087 -74.16962 8423 ft 158 kts 126°
2026-05-06 22:36 4.70469 -74.16140 8374 ft 130 kts 127°
2026-05-06 22:37 4.69988 -74.15505 8372 ft 94 kts 127°
2026-05-06 22:37 4.69744 -74.15150 8372 ft 49 kts 109°
2026-05-06 22:37 4.69709 -74.14900 8373 ft 26 kts 84°
2026-05-06 22:37 4.69797 -74.14789 8373 ft 18 kts 39°
2026-05-06 22:38 4.69893 -74.14716 8373 ft 17 kts 36°
2026-05-06 22:38 4.69900 -74.14663 8372 ft 9 kts 128°
2026-05-06 22:38 4.69878 -74.14631 8371 ft 4 kts 123°
2026-05-06 22:38 4.69877 -74.14629 8373 ft 0 kts 123°